OE3EMC-13 Weather Reports


time (UTC)temp
C
wind
direction
speed
KPH
gust
KPH
rain 1hr
cm
rain 24hr
cm
rain mn
cm
humidity
%
barometer
mb
20260507035313 7 135 4.8 4.8 0.00 0.00 0.00 86 1100.0
20260507034313 7 135 4.8 4.8 0.00 0.00 0.00 86 1100.0
20260507033313 7 247 6.4 4.8 0.00 0.00 0.00 86 1100.0
20260507032313 7 247 6.4 4.8 0.00 0.00 0.00 86 1100.0
20260507031312 7 22 6.4 6.4 0.00 0.00 0.00 85 1100.0
20260507030312 7 22 6.4 6.4 0.00 0.00 0.00 85 1100.0
20260507025312 7 337 9.7 20.9 0.00 0.00 0.00 85 1100.0
20260507024314 7 337 9.7 20.9 0.00 0.00 0.00 85 1100.0
20260507023312 8 337 8.0 11.3 0.00 0.00 0.00 85 1100.0
20260507022313 8 337 8.0 11.3 0.00 0.00 0.00 85 1100.0
20260507021313 8 45 8.0 6.4 0.00 0.00 0.00 85 1100.0
20260507020313 8 45 8.0 6.4 0.00 0.00 0.00 85 1100.0
20260507015311 8 360 8.0 11.3 0.00 0.00 0.00 85 1100.0
20260507014311 8 360 8.0 11.3 0.00 0.00 0.00 85 1100.0
20260507013312 8 360 8.0 11.3 0.00 0.00 0.00 85 1100.0
20260507012312 8 360 8.0 11.3 0.00 0.00 0.00 85 1100.0
20260507011311 8 337 8.0 11.3 0.00 0.00 0.00 85 1100.0
20260507010312 8 337 8.0 11.3 0.00 0.00 0.00 85 1100.0
20260507005311 8 337 8.0 20.9 0.00 0.00 0.00 85 1100.0
20260507004310 8 337 8.0 20.9 0.00 0.00 0.00 85 1100.0
20260507003311 9 292 8.0 9.7 0.00 0.00 0.00 85 1100.0
20260507002310 9 292 8.0 9.7 0.00 0.00 0.00 85 1100.0
20260507001310 9 292 8.0 16.1 0.00 0.00 0.00 85 1100.0
20260507000310 9 292 8.0 16.1 0.00 0.00 0.00 85 1100.0
20260506235310 9 337 6.4 8.0 0.00 0.00 0.00 85 1100.0
20260506234310 9 337 6.4 8.0 0.00 0.00 0.00 85 1100.0
20260506233309 9 360 6.4 17.7 0.00 0.00 0.00 84 1100.0
20260506232314 9 360 6.4 17.7 0.00 0.00 0.00 84 1100.0
20260506231314 10 360 4.8 9.7 0.00 0.00 0.00 83 1100.0
20260506230316 10 360 4.8 9.7 0.00 0.00 0.00 83 1100.0
20260506225315 10 360 4.8 14.5 0.00 0.00 0.00 84 1100.0
20260506224314 10 360 4.8 14.5 0.00 0.00 0.00 84 1100.0
20260506223313 10 315 4.8 12.9 0.00 0.00 0.00 84 1100.0
20260506222313 10 315 4.8 12.9 0.00 0.00 0.00 84 1100.0
20260506221314 10 315 8.0 9.7 0.00 0.00 0.00 84 1100.0
20260506220314 10 315 8.0 9.7 0.00 0.00 0.00 84 1100.0
20260506215313 10 67 6.4 4.8 0.00 0.00 0.00 82 1100.0
20260506214314 10 67 6.4 4.8 0.00 0.00 0.00 82 1100.0
20260506213313 10 45 3.2 6.4 0.00 0.00 0.00 80 1100.0
20260506212312 10 45 3.2 6.4 0.00 0.00 0.00 80 1100.0
20260506211314 10 315 1.6 3.2 0.00 0.00 0.00 80 1100.0
20260506210312 10 315 1.6 3.2 0.00 0.00 0.00 80 1100.0
20260506205312 11 360 1.6 3.2 0.00 0.00 0.00 78 1100.0
20260506204312 11 360 1.6 3.2 0.00 0.00 0.00 78 1100.0
20260506203312 11 360 3.2 4.8 0.00 0.00 0.00 76 1100.0
20260506202312 11 360 3.2 4.8 0.00 0.00 0.00 76 1100.0
20260506201311 12 45 4.8 9.7 0.00 0.00 0.00 71 1100.0
20260506200313 12 45 4.8 9.7 0.00 0.00 0.00 71 1100.0
20260506195312 13 22 4.8 3.2 0.00 0.00 0.00 69 1100.0
20260506194312 13 22 4.8 3.2 0.00 0.00 0.00 69 1100.0
20260506193313 14 67 8.0 6.4 0.00 0.00 0.00 64 1100.0
20260506192311 14 67 8.0 6.4 0.00 0.00 0.00 64 1100.0
20260506191312 15 292 4.8 4.8 0.00 0.00 0.00 52 1100.0
20260506190312 15 292 4.8 4.8 0.00 0.00 0.00 52 1100.0
20260506185310 16 360 9.7 11.3 0.00 0.00 0.00 51 1100.0
20260506184310 16 360 9.7 11.3 0.00 0.00 0.00 51 1100.0
20260506183310 16 292 6.4 8.0 0.00 0.00 0.00 51 1100.0
20260506182310 16 292 6.4 8.0 0.00 0.00 0.00 51 1100.0
20260506181310 17 360 4.8 4.8 0.00 0.00 0.00 49 1100.0
20260506180310 17 360 4.8 4.8 0.00 0.00 0.00 49 1100.0
20260506175309 18 67 3.2 0.0 0.00 0.00 0.00 46 1100.0
20260506174315 18 67 3.2 0.0 0.00 0.00 0.00 46 1100.0
20260506173315 19 337 6.4 6.4 0.00 0.00 0.00 43 1100.0
20260506172314 19 337 6.4 6.4 0.00 0.00 0.00 43 1100.0
20260506171315 20 360 3.2 3.2 0.00 0.00 0.00 41 1100.0
20260506170314 20 360 3.2 3.2 0.00 0.00 0.00 41 1100.0
20260506165313 21 337 6.4 9.7 0.00 0.00 0.00 40 1100.0
20260506164313 21 337 6.4 9.7 0.00 0.00 0.00 40 1100.0
20260506163313 22 360 4.8 11.3 0.00 0.00 0.00 39 1100.0
20260506162313 22 360 4.8 11.3 0.00 0.00 0.00 39 1100.0
20260506161314 21 292 3.2 3.2 0.00 0.00 0.00 42 1100.0
20260506160313 21 292 3.2 3.2 0.00 0.00 0.00 42 1100.0
20260506155313 19 337 3.2 6.4 0.00 0.00 0.00 44 1100.0
20260506154312 19 337 3.2 6.4 0.00 0.00 0.00 44 1100.0
20260506153312 19 337 4.8 8.0 0.00 0.00 0.00 44 1100.0
20260506152313 19 337 4.8 8.0 0.00 0.00 0.00 44 1100.0
20260506151312 20 337 4.8 9.7 0.00 0.00 0.00 42 1100.0
20260506150313 20 337 4.8 9.7 0.00 0.00 0.00 42 1100.0
20260506145312 20 22 4.8 4.8 0.00 0.00 0.00 40 1100.0
20260506144312 20 22 4.8 4.8 0.00 0.00 0.00 40 1100.0
20260506143311 21 337 6.4 8.0 0.00 0.00 0.00 38 1100.0
20260506142313 21 337 6.4 8.0 0.00 0.00 0.00 38 1100.0
20260506141313 24 315 6.4 8.0 0.00 0.00 0.00 36 1100.0
20260506140312 24 315 6.4 8.0 0.00 0.00 0.00 36 1100.0
20260506135311 24 22 9.7 12.9 0.00 0.00 0.00 35 1100.0
20260506134311 24 22 9.7 12.9 0.00 0.00 0.00 35 1100.0
20260506133311 24 337 6.4 9.7 0.00 0.00 0.00 36 1100.0
20260506132310 24 337 6.4 9.7 0.00 0.00 0.00 36 1100.0
20260506131310 22 45 9.7 22.5 0.00 0.00 0.00 38 1100.0
20260506130311 22 45 9.7 22.5 0.00 0.00 0.00 38 1100.0
20260506125310 22 45 6.4 9.7 0.00 0.00 0.00 40 1100.0
20260506124310 22 45 6.4 9.7 0.00 0.00 0.00 40 1100.0
20260506123310 21 22 4.8 12.9 0.00 0.00 0.00 41 1100.0
20260506122310 21 22 4.8 12.9 0.00 0.00 0.00 41 1100.0
20260506121310 22 292 4.8 4.8 0.00 0.00 0.00 46 1100.0
20260506120309 22 292 4.8 4.8 0.00 0.00 0.00 46 1100.0
20260506115314 20 360 3.2 3.2 0.00 0.00 0.00 45 1100.0
20260506114314 20 360 3.2 3.2 0.00 0.00 0.00 45 1100.0
20260506113315 20 360 6.4 4.8 0.00 0.00 0.00 45 1100.0
20260506112314 20 360 6.4 4.8 0.00 0.00 0.00 45 1100.0
20260506111313 19 360 3.2 6.4 0.00 0.00 0.00 47 1100.0
20260506110314 19 360 3.2 6.4 0.00 0.00 0.00 47 1100.0
20260506105314 21 202 6.4 4.8 0.00 0.00 0.00 49 1100.0
20260506104313 21 202 6.4 4.8 0.00 0.00 0.00 49 1100.0
20260506103313 19 337 4.8 6.4 0.00 0.00 0.00 51 1100.0
20260506102313 19 337 4.8 6.4 0.00 0.00 0.00 51 1100.0
20260506101313 19 45 4.8 3.2 0.00 0.00 0.00 50 1100.0
20260506100312 19 45 4.8 3.2 0.00 0.00 0.00 50 1100.0
20260506095312 20 292 3.2 6.4 0.00 0.00 0.00 47 1100.0
20260506094313 20 292 3.2 6.4 0.00 0.00 0.00 47 1100.0
20260506093312 19 135 1.6 0.0 0.00 0.00 0.00 50 1100.0
20260506092313 19 135 1.6 0.0 0.00 0.00 0.00 50 1100.0
20260506091313 18 360 1.6 4.8 0.00 0.00 0.00 52 1100.0
20260506090313 18 360 1.6 4.8 0.00 0.00 0.00 52 1100.0
20260506085312 18 292 4.8 6.4 0.00 0.00 0.00 57 1100.0
20260506084311 18 292 4.8 6.4 0.00 0.00 0.00 57 1100.0
20260506083312 16 360 4.8 4.8 0.00 0.00 0.00 63 1100.0
20260506082312 16 360 4.8 4.8 0.00 0.00 0.00 63 1100.0
20260506081311 15 292 4.8 4.8 0.00 0.00 0.00 68 1100.0
20260506080311 15 292 4.8 4.8 0.00 0.00 0.00 68 1100.0
20260506073310 14 270 3.2 8.0 0.00 0.00 0.00 69 1100.0
20260506072310 14 270 3.2 8.0 0.00 0.00 0.00 69 1100.0
20260506071310 13 337 6.4 6.4 0.00 0.00 0.00 70 1100.0
20260506070310 13 337 6.4 6.4 0.00 0.00 0.00 70 1100.0
20260506062311 11 360 6.4 6.4 0.00 0.00 0.00 79 1100.0
20260506061309 11 337 4.8 8.0 0.00 0.00 0.00 82 1100.0
20260506060314 11 337 4.8 8.0 0.00 0.00 0.00 82 1100.0
20260506051313 9 45 8.0 4.8 0.00 0.00 0.00 88 1100.0
20260506050314 9 45 8.0 4.8 0.00 0.00 0.00 88 1100.0
20260506044313 8 337 8.0 20.9 0.00 0.00 0.00 88 1100.0
20260506043314 8 292 8.0 16.1 0.00 0.00 0.00 88 1100.0
20260506042314 8 292 8.0 16.1 0.00 0.00 0.00 88 1100.0
20260506041314 8 360 4.8 9.7 0.00 0.00 0.00 87 1100.0
20260506040312 8 360 4.8 9.7 0.00 0.00 0.00 87 1100.0